GW2464 Weather Reports


Display with metric or nautical units.
time (UTC)temp
F
wind
direction
speed
MPH
gust
MPH
rain 1hr
in
rain 24hr
in
rain mn
in
humidity
%
barometer
mb
20260903075803 63 16 0.0 0.0 0.00 0.17 0.17 99 1017.0
20260903075258 63 357 0.0 1.0 0.00 0.17 0.17 99 1016.8
20260903074757 63 65 1.0 1.0 0.05 0.17 0.17 99 1016.6
20260903074252 63 25 0.0 0.0 0.05 0.17 0.17 99 1016.6
20260903073748 63 17 0.0 0.0 0.00 0.16 0.16 99 1016.7
20260903073243 63 3 0.0 0.0 0.00 0.16 0.16 99 1016.8
20260903072739 63 340 1.0 1.0 0.07 0.16 0.16 99 1017.0
20260903072235 63 357 1.0 1.0 0.07 0.16 0.16 99 1016.7
20260903071732 63 344 1.0 1.0 0.00 0.15 0.15 99 1016.6
20260903071227 63 11 0.0 0.0 0.00 0.15 0.15 99 1016.4
20260903070726 63 18 0.0 0.0 0.00 0.15 0.15 99 1016.6
20260903070223 63 14 0.0 0.0 0.00 0.15 0.15 99 1017.1
20260903065717 63 354 1.0 1.0 0.00 0.15 0.15 99 1016.7
20260903065211 64 7 0.0 1.0 0.00 0.15 0.15 99 1016.9
20260903064709 64 357 0.0 0.0 0.00 0.15 0.15 99 1016.9
20260903064206 64 34 0.0 1.0 0.00 0.15 0.15 99 1017.1
20260903063701 64 118 1.0 1.0 0.00 0.15 0.15 99 1017.3
20260903063156 64 63 1.0 1.0 0.00 0.15 0.15 99 1017.4
20260903062652 64 36 0.0 1.0 0.00 0.15 0.15 99 1017.1
20260903062146 64 345 0.0 1.0 0.00 0.15 0.15 99 1017.5
20260903061642 64 145 1.0 1.0 0.00 0.15 0.15 99 1017.8
20260903061141 64 29 1.0 1.0 0.00 0.15 0.15 99 1017.9
20260903060637 64 7 1.0 1.0 0.00 0.15 0.15 99 1017.9
20260903060132 64 49 0.0 1.0 0.00 0.15 0.15 99 1017.9
20260903055629 64 44 0.0 0.0 0.00 0.15 0.15 99 1017.8
20260903055127 64 37 0.0 1.0 0.05 0.15 0.15 99 1017.7
20260903054622 64 351 0.0 0.0 0.05 0.15 0.15 99 1017.4
20260903054118 64 5 0.0 0.0 0.00 0.14 0.14 99 1017.4
20260903053614 64 354 0.0 1.0 0.00 0.14 0.14 99 1017.5
20260903053109 64 346 1.0 1.0 0.00 0.14 0.14 99 1017.6
20260903052605 64 340 1.0 1.0 0.07 0.14 0.14 99 1017.6
20260903052100 64 354 0.0 1.0 0.12 0.14 0.14 99 1017.8
20260903051555 64 17 0.0 0.0 0.12 0.13 0.13 99 1017.8
20260903051051 64 17 0.0 0.0 0.12 0.12 0.12 99 1018.2
20260903050550 64 10 0.0 0.0 0.12 0.11 0.11 99 1018.9
20260903050046 64 40 1.0 1.0 0.05 0.09 0.09 99 1018.7
20260903045544 64 354 0.0 0.0 0.12 0.09 0.09 99 1019.3
20260903045042 64 70 1.0 1.0 0.14 0.08 0.08 99 1019.3
20260903044537 64 353 0.0 0.0 0.12 0.07 0.07 99 1019.6
20260903044032 64 320 1.0 1.0 0.05 0.06 0.06 99 1020.0
20260903043528 64 333 1.0 1.0 0.07 0.05 0.05 99 1019.9
20260903043027 64 347 0.0 1.0 0.07 0.05 0.05 99 1019.9
20260903042522 64 316 1.0 2.0 0.00 0.04 0.04 99 1019.6
20260903042018 64 352 1.0 1.0 0.05 0.04 0.04 99 1019.1
20260903041514 64 35 0.0 0.0 0.12 0.04 0.04 99 1018.8
20260903041009 64 5 0.0 0.0 0.19 0.03 0.03 99 1018.5
20260903040508 64 32 0.0 0.0 0.17 0.02 0.02 99 1018.6
20260903040008 64 17 0.0 0.0 0.24 0.67 0.67 99 1018.7
20260903035500 64 31 0.0 0.0 0.31 0.66 0.66 99 1018.9
20260903034955 64 14 0.0 0.0 0.19 0.63 0.63 99 1019.1
20260903034450 64 358 0.0 1.0 0.24 0.61 0.61 99 1019.2
20260903033950 64 352 0.0 0.0 0.24 0.60 0.60 99 1018.9
20260903033445 64 5 0.0 0.0 0.19 0.57 0.57 99 1018.9
20260903032940 64 13 0.0 0.0 0.17 0.56 0.56 99 1019.6
20260903032435 64 19 0.0 0.0 0.17 0.54 0.54 99 1019.9
20260903031930 64 31 1.0 1.0 0.17 0.52 0.52 99 1020.1
20260903031425 64 32 0.0 1.0 0.19 0.51 0.51 99 1020.4
20260903030920 64 6 1.0 1.0 0.26 0.49 0.49 99 1020.6
20260903030416 64 20 0.0 1.0 0.35 0.48 0.48 99 1020.7
20260903025912 64 10 2.0 2.0 0.24 0.45 0.45 99 1020.9
20260903025408 64 10 0.0 1.0 0.19 0.42 0.42 99 1021.1
20260903024902 64 260 2.0 2.0 0.28 0.41 0.41 99 1020.8
20260903024356 64 172 2.0 2.0 0.73 0.38 0.38 99 1019.7
20260903023851 64 91 1.0 2.0 1.04 0.36 0.36 99 1020.2
20260903023347 64 265 2.0 2.0 0.42 0.24 0.24 99 1020.3
20260903022842 64 44 0.0 1.0 0.17 0.19 0.19 99 1020.0
20260903022341 64 1 0.0 0.0 0.17 0.17 0.17 99 1019.7
20260903021840 64 17 0.0 0.0 0.12 0.16 0.16 99 1019.8
20260903021336 64 354 1.0 1.0 0.00 0.14 0.14 99 1019.8
20260903020835 64 23 0.0 1.0 0.00 0.14 0.14 99 1019.7
20260903020330 64 305 1.0 2.0 0.00 0.14 0.14 99 1019.8
20260903015825 64 16 0.0 0.0 0.00 0.14 0.14 99 1019.6
20260903015321 64 23 0.0 1.0 0.00 0.14 0.14 99 1019.8
20260903014816 64 11 0.0 0.0 0.00 0.14 0.14 99 1019.9
20260903014315 64 15 0.0 1.0 0.00 0.14 0.14 99 1020.2
20260903013805 64 34 0.0 0.0 0.00 0.14 0.14 99 1020.3
20260903013304 64 19 0.0 0.0 0.00 0.14 0.14 99 1020.4
20260903012803 64 35 1.0 1.0 0.00 0.14 0.14 99 1020.2
20260903012257 64 357 1.0 1.0 0.00 0.14 0.14 99 1020.3
20260903011751 64 341 1.0 2.0 0.00 0.14 0.14 99 1020.2
20260903011251 64 31 1.0 1.0 0.00 0.14 0.14 99 1019.9
20260903010746 64 10 0.0 0.0 0.00 0.14 0.14 99 1019.8
20260903010242 64 70 1.0 1.0 0.00 0.14 0.14 99 1019.5
20260903005740 64 6 0.0 0.0 0.00 0.14 0.14 99 1019.5
20260903005235 64 344 3.0 3.0 0.00 0.14 0.14 99 1019.1
20260903004731 64 0 1.0 1.0 0.00 0.14 0.14 99 1019.1
20260903004226 64 41 1.0 1.0 0.00 0.14 0.14 99 1019.2
20260903003722 64 28 1.0 1.0 0.00 0.14 0.14 99 1019.3
20260903003217 64 8 0.0 1.0 0.00 0.14 0.14 99 1019.7
20260903002711 64 71 1.0 2.0 0.00 0.14 0.14 99 1019.8
20260903002206 64 25 0.0 0.0 0.00 0.14 0.14 99 1019.9
20260903001701 64 15 0.0 0.0 0.00 0.14 0.14 99 1019.9
20260903001155 64 6 0.0 0.0 0.00 0.14 0.14 99 1019.7
20260903000650 64 17 0.0 0.0 0.00 0.14 0.14 99 1019.9
20260903000149 64 6 1.0 1.0 0.00 0.14 0.14 99 1019.9
20260902235643 64 42 0.0 1.0 0.00 0.14 0.14 99 1019.7
20260902235138 64 7 0.0 0.0 0.00 0.14 0.14 99 1019.7
20260902234637 64 62 2.0 3.0 0.00 0.14 0.14 99 1019.6
20260902234137 64 15 0.0 0.0 0.07 0.14 0.14 99 1019.3
20260902233632 64 11 0.0 0.0 0.07 0.14 0.14 99 1019.6
20260902233131 64 15 0.0 0.0 0.00 0.13 0.13 99 1019.3
20260902232626 64 14 0.0 0.0 0.00 0.13 0.13 99 1019.3
20260902232125 64 29 0.0 1.0 0.00 0.13 0.13 99 1019.6
20260902231625 64 9 1.0 1.0 0.00 0.13 0.13 99 1019.3
20260902231124 64 29 3.0 3.0 0.00 0.13 0.13 99 1019.2
20260902230620 64 34 0.0 1.0 0.00 0.13 0.13 99 1019.5
20260902230118 64 349 0.0 0.0 0.00 0.13 0.13 99 1019.2
20260902225614 64 21 1.0 1.0 0.00 0.13 0.13 99 1019.5
20260902225113 64 13 0.0 0.0 0.00 0.13 0.13 99 1019.6
20260902224612 64 22 0.0 0.0 0.00 0.13 0.13 99 1019.6
20260902224108 64 22 0.0 0.0 0.05 0.13 0.13 99 1019.5
20260902223604 64 31 0.0 0.0 0.05 0.13 0.13 99 1019.5
20260902223103 64 38 0.0 0.0 0.00 0.12 0.12 99 1019.8
20260902222602 64 23 0.0 0.0 0.00 0.12 0.12 99 1019.9
20260902222101 64 34 0.0 1.0 0.00 0.12 0.12 99 1019.8
20260902221555 65 33 0.0 0.0 0.00 0.12 0.12 99 1019.8
20260902221050 65 66 1.0 1.0 0.00 0.12 0.12 99 1020.1
20260902220545 65 16 0.0 0.0 0.00 0.12 0.12 99 1019.9
20260902220040 65 21 0.0 0.0 0.00 0.12 0.12 99 1020.0
20260902215536 65 33 0.0 0.0 0.07 0.12 0.12 99 1019.8
20260902215031 65 28 0.0 0.0 0.07 0.12 0.12 99 1019.9
20260902214526 65 21 2.0 2.0 0.00 0.11 0.11 99 1019.8
20260902214025 65 331 1.0 2.0 0.00 0.11 0.11 99 1020.0
20260902213521 65 38 0.0 1.0 0.00 0.11 0.11 99 1019.9
20260902213020 65 4 1.0 2.0 0.00 0.11 0.11 99 1019.9
20260902212516 64 66 1.0 1.0 0.00 0.11 0.11 99 1020.0
20260902212012 65 36 0.0 0.0 0.00 0.11 0.11 99 1019.7
20260902211508 64 294 1.0 2.0 0.00 0.11 0.11 99 1019.5
20260902211003 65 297 1.0 1.0 0.00 0.11 0.11 99 1019.2
20260902210502 65 44 1.0 2.0 0.00 0.11 0.11 99 1019.5
20260902210001 65 21 1.0 1.0 0.00 0.11 0.11 99 1019.8
20260902205456 65 21 1.0 1.0 0.00 0.11 0.11 99 1019.9
20260902204952 65 52 5.0 8.0 0.00 0.11 0.11 99 1019.8
20260902204451 65 52 5.0 8.0 0.00 0.11 0.11 99 1019.8
20260902203947 65 35 1.0 1.0 0.00 0.11 0.11 99 1020.1
20260902203442 65 25 1.0 1.0 0.00 0.11 0.11 99 1020.1
20260902202941 65 49 0.0 1.0 0.07 0.11 0.11 99 1020.3
20260902202437 65 20 0.0 0.0 0.07 0.11 0.11 99 1020.1
20260902201934 65 14 0.0 1.0 0.00 0.10 0.10 99 1020.7
20260902201428 65 8 0.0 0.0 0.00 0.10 0.10 99 1020.7
20260902200923 65 6 0.0 0.0 0.00 0.10 0.10 99 1020.4
20260902200418 65 24 0.0 0.0 0.00 0.10 0.10 99 1020.5
20260902195913 65 61 1.0 1.0 0.00 0.10 0.10 99 1020.4
20260902195408 65 17 0.0 0.0 0.00 0.10 0.10 99 1020.3
20260902194903 65 65 0.0 1.0 0.00 0.10 0.10 99 1020.3
20260902194402 65 13 0.0 0.0 0.00 0.10 0.10 99 1020.1
20260902193857 65 18 0.0 0.0 0.00 0.10 0.10 99 1020.2
20260902193354 65 30 0.0 0.0 0.00 0.10 0.10 99 1020.1
20260902192852 65 23 0.0 0.0 0.00 0.10 0.10 99 1020.3
20260902192351 65 10 1.0 1.0 0.00 0.10 0.10 99 1020.4
20260902191845 65 18 0.0 0.0 0.00 0.10 0.10 99 1020.1
20260902191341 65 27 1.0 2.0 0.00 0.10 0.10 99 1020.3
20260902190836 65 39 0.0 1.0 0.00 0.10 0.10 99 1020.3
20260902190335 64 25 0.0 0.0 0.00 0.10 0.10 99 1020.4
20260902185832 64 62 0.0 1.0 0.00 0.10 0.10 99 1020.5
20260902185327 64 49 1.0 1.0 0.00 0.10 0.10 99 1020.5
20260902184822 65 25 1.0 1.0 0.00 0.10 0.10 99 1020.3
20260902184318 64 49 1.0 1.0 0.00 0.10 0.10 99 1020.7
20260902183813 65 5 2.0 3.0 0.00 0.10 0.10 99 1020.6
20260902183309 64 358 1.0 1.0 0.00 0.10 0.10 99 1020.6
20260902182805 65 27 0.0 0.0 0.00 0.10 0.10 99 1020.9
20260902182305 64 16 0.0 0.0 0.00 0.10 0.10 99 1020.8
20260902181757 64 10 0.0 0.0 0.00 0.10 0.10 99 1021.0
20260902181252 64 37 1.0 1.0 0.00 0.10 0.10 99 1021.1
20260902180747 64 17 0.0 1.0 0.00 0.10 0.10 99 1021.4
20260902180242 64 7 0.0 1.0 0.00 0.10 0.10 99 1021.4
20260902175737 64 340 0.0 0.0 0.00 0.10 0.10 99 1021.4
20260902175233 64 71 1.0 1.0 0.00 0.10 0.10 99 1021.5
20260902174728 64 7 1.0 1.0 0.00 0.10 0.10 99 1021.5
20260902174224 64 18 0.0 1.0 0.05 0.10 0.10 99 1021.7
20260902173719 64 16 0.0 0.0 0.05 0.10 0.10 99 1021.7
20260902173214 64 23 0.0 0.0 0.00 0.09 0.09 99 1021.4
20260902172709 65 21 0.0 0.0 0.00 0.09 0.09 99 1021.7
20260902172208 64 28 0.0 1.0 0.00 0.09 0.09 99 1021.7
20260902171703 64 22 0.0 0.0 0.00 0.09 0.09 99 1021.9
20260902171159 64 25 0.0 1.0 0.00 0.09 0.09 99 1021.3
20260902170655 64 15 0.0 0.0 0.00 0.09 0.09 99 1021.5
20260902170150 64 21 0.0 0.0 0.00 0.09 0.09 99 1021.5
20260902165644 64 12 1.0 2.0 0.00 0.09 0.09 99 1021.7
20260902165138 64 80 2.0 2.0 0.00 0.09 0.09 99 1021.2
20260902164633 64 150 1.0 1.0 0.00 0.09 0.09 99 1021.4
20260902164127 64 103 1.0 1.0 0.00 0.09 0.09 99 1021.3
20260902163622 64 15 0.0 0.0 0.00 0.09 0.09 99 1021.1
20260902163121 64 358 1.0 1.0 0.07 0.09 0.09 99 1021.5
20260902162620 64 347 1.0 1.0 0.07 0.09 0.09 99 1021.4
20260902162115 64 14 0.0 0.0 0.00 0.08 0.08 99 1021.7
20260902161610 64 33 1.0 1.0 0.05 0.08 0.08 99 1021.8
20260902161106 64 26 0.0 1.0 0.05 0.08 0.08 99 1021.7
20260902160601 64 33 1.0 1.0 0.00 0.07 0.07 99 1021.7
20260902160056 64 57 0.0 1.0 0.00 0.07 0.07 99 1021.9
20260902155544 64 18 0.0 1.0 0.00 0.07 0.07 99 1021.8
20260902155043 64 7 0.0 0.0 0.00 0.07 0.07 99 1021.8
20260902154538 64 30 0.0 0.0 0.00 0.07 0.07 99 1021.3
20260902154033 64 6 0.0 0.0 0.07 0.07 0.07 99 1021.4
20260902153532 64 23 0.0 0.0 0.07 0.07 0.07 99 1021.4
20260902153027 64 23 0.0 0.0 0.00 0.06 0.06 99 1021.7
20260902152524 64 29 0.0 1.0 0.00 0.06 0.06 99 1021.4
20260902152019 63 16 0.0 0.0 0.00 0.06 0.06 99 1021.3
20260902151515 63 46 0.0 1.0 0.00 0.06 0.06 99 1021.3
20260902151014 63 75 1.0 1.0 0.05 0.06 0.06 99 1021.3
20260902150509 63 137 1.0 1.0 0.24 0.06 0.06 99 1020.9
20260902150004 63 338 1.0 1.0 0.19 0.05 0.05 99 1021.4
20260902145459 63 19 0.0 0.0 0.00 0.02 0.02 99 1021.3
20260902144953 63 324 2.0 2.0 0.00 0.02 0.02 99 1021.3
20260902144450 63 349 0.0 0.0 0.00 0.02 0.02 99 1021.5
20260902143944 63 19 1.0 2.0 0.00 0.02 0.02 99 1021.3
20260902143440 63 12 1.0 2.0 0.00 0.02 0.02 99 1021.5
20260902142935 63 64 1.0 1.0 0.00 0.02 0.02 99 1021.2
20260902142431 63 124 1.0 2.0 0.00 0.02 0.02 99 1021.3
20260902141926 63 210 0.0 1.0 0.00 0.02 0.02 99 1021.4
20260902141421 63 22 1.0 1.0 0.00 0.02 0.02 99 1021.7
20260902140920 63 46 1.0 1.0 0.00 0.02 0.02 99 1021.9
20260902140416 63 25 0.0 1.0 0.00 0.02 0.02 99 1021.9
20260902135915 63 15 0.0 0.0 0.00 0.02 0.02 99 1021.9
20260902135412 63 62 1.0 1.0 0.00 0.02 0.02 99 1022.0
20260902134910 63 11 0.0 0.0 0.00 0.02 0.02 99 1021.8
20260902134407 63 42 0.0 0.0 0.00 0.02 0.02 99 1021.2
20260902133907 63 18 0.0 0.0 0.00 0.02 0.02 99 1021.7
20260902133401 63 18 0.0 0.0 0.00 0.02 0.02 99 1021.8
20260902132856 63 50 0.0 1.0 0.00 0.02 0.02 99 1021.3
20260902132351 63 48 1.0 1.0 0.00 0.02 0.02 99 1021.3
20260902131846 63 32 1.0 1.0 0.00 0.02 0.02 99 1021.7
20260902131343 63 19 0.0 0.0 0.00 0.02 0.02 99 1021.4
20260902130842 63 37 0.0 0.0 0.00 0.02 0.02 99 1021.3
20260902130338 63 4 0.0 1.0 0.00 0.02 0.02 99 1021.8
20260902125833 63 9 0.0 0.0 0.00 0.02 0.02 99 1021.3
20260902125329 63 30 0.0 1.0 0.00 0.02 0.02 99 1021.2
20260902124825 63 15 0.0 1.0 0.00 0.02 0.02 99 1021.1
20260902124321 63 20 0.0 0.0 0.00 0.02 0.02 99 1021.1
20260902123815 63 32 0.0 0.0 0.00 0.02 0.02 99 1021.1
20260902123312 63 328 1.0 1.0 0.00 0.02 0.02 99 1020.9
20260902122810 63 25 0.0 0.0 0.00 0.02 0.02 99 1021.0
20260902122307 63 355 1.0 2.0 0.00 0.02 0.02 99 1021.1
20260902121806 63 12 0.0 1.0 0.00 0.02 0.02 99 1020.9
20260902121301 63 42 1.0 2.0 0.00 0.02 0.02 99 1021.1
20260902120751 63 25 0.0 0.0 0.00 0.02 0.02 99 1021.1
20260902120247 63 23 0.0 0.0 0.00 0.02 0.02 99 1020.9
20260902115742 64 18 0.0 0.0 0.00 0.02 0.02 99 1020.6
20260902115238 64 50 1.0 1.0 0.05 0.02 0.02 99 1020.7
20260902114734 64 22 0.0 0.0 0.00 0.01 0.01 99 1020.5
20260902114230 63 23 0.0 1.0 0.00 0.01 0.01 99 1020.9
20260902113724 64 37 1.0 1.0 0.00 0.01 0.01 99 1020.7
20260902113220 64 15 0.0 0.0 0.00 0.01 0.01 99 1020.5
20260902112719 64 17 0.0 1.0 0.00 0.01 0.01 99 1020.8
20260902112216 64 356 1.0 1.0 0.00 0.01 0.01 99 1020.5
20260902111711 64 15 0.0 0.0 0.00 0.01 0.01 99 1020.6
20260902111207 64 344 1.0 1.0 0.00 0.01 0.01 99 1020.6
20260902110703 64 34 0.0 1.0 0.00 0.01 0.01 99 1020.7
20260902110159 64 18 0.0 0.0 0.00 0.01 0.01 99 1020.7
20260902105658 64 13 1.0 1.0 0.00 0.01 0.01 99 1020.7
20260902105154 64 7 0.0 0.0 0.00 0.01 0.01 99 1020.6
20260902104648 64 24 0.0 1.0 0.00 0.01 0.01 99 1020.4
20260902104144 64 15 2.0 2.0 0.00 0.01 0.01 99 1020.6
20260902103643 64 22 0.0 0.0 0.00 0.01 0.01 99 1020.6
20260902103139 64 346 1.0 1.0 0.00 0.01 0.01 99 1020.7
20260902102635 64 10 1.0 1.0 0.00 0.01 0.01 99 1020.8
20260902102132 64 14 0.0 1.0 0.00 0.01 0.01 99 1020.6
20260902101627 64 14 0.0 0.0 0.00 0.01 0.01 99 1020.5
20260902101126 64 20 0.0 0.0 0.00 0.01 0.01 99 1020.5
20260902100621 64 32 0.0 0.0 0.00 0.01 0.01 99 1020.6
20260902100116 65 16 0.0 1.0 0.00 0.01 0.01 99 1020.2
20260902095615 65 17 1.0 1.0 0.00 0.01 0.01 99 1020.6
20260902095115 65 14 0.0 0.0 0.00 0.01 0.01 99 1020.5
20260902094610 65 25 0.0 0.0 0.00 0.01 0.01 99 1020.5
20260902094106 66 11 0.0 0.0 0.00 0.01 0.01 99 1020.4
20260902093605 66 22 0.0 0.0 0.00 0.01 0.01 99 1020.5
20260902093054 66 27 0.0 0.0 0.00 0.01 0.01 99 1020.4
20260902092549 66 22 0.0 0.0 0.00 0.01 0.01 99 1020.4
20260902092044 66 32 0.0 0.0 0.00 0.01 0.01 99 1020.3
20260902091534 66 17 0.0 0.0 0.00 0.01 0.01 99 1020.1
20260902091030 66 37 0.0 1.0 0.00 0.01 0.01 99 1020.3
20260902090526 66 29 1.0 1.0 0.00 0.01 0.01 99 1020.3
20260902090024 66 8 0.0 0.0 0.00 0.01 0.01 99 1020.3
20260902085518 66 28 0.0 0.0 0.00 0.01 0.01 99 1020.1
20260902085014 67 43 1.0 1.0 0.00 0.01 0.01 99 1020.0
20260902084510 67 21 0.0 0.0 0.00 0.01 0.01 99 1020.2
20260902084005 67 13 1.0 1.0 0.00 0.01 0.01 99 1019.8
20260902083501 67 18 0.0 0.0 0.00 0.01 0.01 99 1020.0
20260902082955 67 18 0.0 0.0 0.00 0.01 0.01 99 1020.0
20260902082450 67 17 0.0 0.0 0.00 0.01 0.01 99 1019.9
20260902081946 68 16 1.0 1.0 0.00 0.01 0.01 99 1019.8
20260902081444 68 16 0.0 0.0 0.00 0.01 0.01 99 1019.9
20260902080938 68 18 0.0 0.0 0.00 0.01 0.01 99 1019.9
20260902080435 68 48 0.0 1.0 0.07 0.01 0.01 99 1019.9